M1DJR Weather Reports


time (UTC)temp
F
wind
direction
speed
knots
gust
knots
rain 1hr
in
rain 24hr
in
rain mn
in
humidity
%
barometer
mb
20260502130205 70 0.0 0.0 0.00 0.00 0.00 41 1014.1
20260502123148 70 0.0 0.0 0.00 0.00 0.00 42 1014.5
20260502122145 69 0.0 0.0 0.00 0.00 0.00 44 1014.8
20260502121144 69 0.0 0.0 0.00 0.00 0.00 45 1014.8
20260502120143 68 0.0 0.0 0.00 0.00 0.00 47 1014.8
20260502115140 66 0.0 0.0 0.00 0.00 0.00 49 1015.1
20260502114138 65 0.0 0.0 0.00 0.00 0.00 51 1015.3
20260502113136 64 0.0 0.0 0.00 0.00 0.00 54 1015.6
20260502112133 63 0.0 0.0 0.00 0.00 0.00 55 1015.8
20260502111133 62 0.0 0.0 0.00 0.00 0.00 58 1015.8
20260502110131 61 0.0 0.0 0.00 0.00 0.00 60 1015.7
20260502105127 60 0.0 0.0 0.00 0.00 0.00 61 1015.6
20260502104125 59 0.0 0.0 0.00 0.00 0.00 62 1015.7
20260502103134 58 0.0 0.0 0.00 0.00 0.00 64 1015.7
20260502102121 58 0.0 0.0 0.00 0.00 0.00 66 1015.9
20260502101621 57 0.0 0.0 0.00 0.00 0.00 67 1016.0
20260502100117 56 0.0 0.0 0.00 0.00 0.00 67 1016.2
20260502091107 55 0.0 0.0 0.00 0.00 0.00 72 1016.7
20260502090106 54 0.0 0.0 0.00 0.00 0.00 72 1016.6
20260502071047 50 0.0 0.0 0.00 0.00 0.00 82 1016.8
20260502070041 50 0.0 0.0 0.00 0.00 0.00 82 1016.7
20260502065119 49 0.0 0.0 0.00 0.00 0.00 83 1016.7
20260502064039 49 0.0 0.0 0.00 0.00 0.00 84 1016.7
20260502063036 49 0.0 0.0 0.00 0.00 0.00 84 1016.7
20260502062034 48 0.0 0.0 0.00 0.00 0.00 84 1016.6
20260502061112 48 0.0 0.0 0.00 0.00 0.00 84 1016.6
20260502060030 47 0.0 0.0 0.00 0.00 0.00 84 1016.5
20260502055031 47 0.0 0.0 0.00 0.00 0.00 84 1016.5
20260502054026 47 0.0 0.0 0.00 0.00 0.00 83 1016.5
20260502053024 47 0.0 0.0 0.00 0.00 0.00 83 1016.5
20260502052021 47 0.0 0.0 0.00 0.00 0.00 83 1016.4
20260502051030 47 0.0 0.0 0.00 0.00 0.00 82 1016.4
20260502050018 47 0.0 0.0 0.00 0.00 0.00 82 1016.4
20260502045026 47 0.0 0.0 0.00 0.00 0.00 82 1016.5
20260502044014 47 0.0 0.0 0.00 0.00 0.00 82 1016.6
20260502043013 47 0.0 0.0 0.00 0.00 0.00 81 1016.6
20260502042010 47 0.0 0.0 0.00 0.00 0.00 81 1016.6
20260502041008 48 0.0 0.0 0.00 0.00 0.00 81 1016.7
20260502040005 48 0.0 0.0 0.00 0.00 0.00 81 1016.7
20260502035055 48 0.0 0.0 0.00 0.00 0.00 81 1016.7
20260502033500 49 0.0 0.0 0.00 0.00 0.00 80 1016.9
20260502032539 49 0.0 0.0 0.00 0.00 0.00 80 1016.8
20260502031456 49 0.0 0.0 0.00 0.00 0.00 80 1016.8
20260502030505 50 0.0 0.0 0.00 0.00 0.00 80 1016.9
20260502025523 50 0.0 0.0 0.00 0.00 0.00 80 1017.0
20260502024451 50 0.0 0.0 0.00 0.00 0.00 80 1017.0
20260502023449 51 0.0 0.0 0.00 0.00 0.00 80 1017.0
20260502022446 51 0.0 0.0 0.00 0.00 0.00 79 1017.1
20260502021445 51 0.0 0.0 0.00 0.00 0.00 79 1017.1
20260502020443 52 0.0 0.0 0.00 0.00 0.00 79 1017.1
20260502015441 52 0.0 0.0 0.00 0.00 0.00 79 1017.3
20260502014519 52 0.0 0.0 0.00 0.00 0.00 78 1017.4
20260502013436 52 0.0 0.0 0.00 0.00 0.00 78 1017.5
20260502012435 53 0.0 0.0 0.00 0.00 0.00 78 1017.5
20260502011433 53 0.0 0.0 0.00 0.00 0.00 78 1017.7
20260502010431 53 0.0 0.0 0.00 0.00 0.00 78 1017.7
20260502005439 53 0.0 0.0 0.00 0.00 0.00 78 1017.7
20260502004427 53 0.0 0.0 0.00 0.00 0.00 78 1017.8
20260502003425 54 0.0 0.0 0.00 0.00 0.00 78 1017.8
20260502002423 54 0.0 0.0 0.00 0.00 0.00 79 1017.8
20260502001421 54 0.0 0.0 0.00 0.00 0.00 79 1017.9
20260502000419 54 0.0 0.0 0.00 0.00 0.00 79 1018.0
20260501235416 54 0.0 0.0 0.00 0.00 0.00 79 1018.0
20260501234415 54 0.0 0.0 0.00 0.00 0.00 79 1018.1
20260501233452 54 0.0 0.0 0.00 0.00 0.00 80 1018.1
20260501232501 54 0.0 0.0 0.00 0.00 0.00 79 1018.1
20260501231409 54 0.0 0.0 0.00 0.00 0.00 79 1018.0
20260501230407 54 0.0 0.0 0.00 0.00 0.00 79 1018.1
20260501225454 54 0.0 0.0 0.00 0.00 0.00 78 1018.0
20260501224402 54 0.0 0.0 0.00 0.00 0.00 78 1017.9
20260501223401 55 0.0 0.0 0.00 0.00 0.00 78 1017.9
20260501222409 55 0.0 0.0 0.00 0.00 0.00 78 1017.9
20260501221357 55 0.0 0.0 0.00 0.00 0.00 78 1018.0
20260501220354 55 0.0 0.0 0.00 0.00 0.00 78 1018.0
20260501215433 55 0.0 0.0 0.00 0.00 0.00 76 1017.9
20260501214351 55 0.0 0.0 0.00 0.00 0.00 76 1018.0
20260501213349 55 0.0 0.0 0.00 0.00 0.00 75 1017.9
20260501212357 56 0.0 0.0 0.00 0.00 0.00 74 1017.9
20260501211344 56 0.0 0.0 0.00 0.00 0.00 74 1017.9
20260501210424 56 0.0 0.0 0.00 0.00 0.00 73 1018.0
20260501205341 56 0.0 0.0 0.00 0.00 0.00 73 1018.0
20260501204349 57 0.0 0.0 0.00 0.00 0.00 72 1018.0
20260501203347 57 0.0 0.0 0.00 0.00 0.00 72 1018.0
20260501202336 58 0.0 0.0 0.00 0.00 0.00 71 1018.0
20260501201333 58 0.0 0.0 0.00 0.00 0.00 70 1018.0
20260501200331 59 0.0 0.0 0.00 0.00 0.00 69 1018.0
20260501195328 59 0.0 0.0 0.00 0.00 0.00 69 1018.0
20260501194327 59 0.0 0.0 0.00 0.00 0.00 68 1018.0
20260501193326 60 0.0 0.0 0.00 0.00 0.00 67 1018.0
20260501192403 60 0.0 0.0 0.00 0.00 0.00 65 1017.8
20260501191343 61 0.0 0.0 0.00 0.00 0.00 63 1017.8
20260501190329 62 0.0 0.0 0.00 0.00 0.00 62 1017.8
20260501185359 62 0.0 0.0 0.00 0.00 0.00 61 1017.7
20260501184316 62 0.0 0.0 0.00 0.00 0.00 59 1017.6
20260501183313 63 0.0 0.0 0.00 0.00 0.00 58 1017.6
20260501182310 63 0.0 0.0 0.00 0.00 0.00 56 1017.6
20260501181310 64 0.0 0.0 0.00 0.00 0.00 54 1017.5
20260501180317 65 0.0 0.0 0.00 0.00 0.00 52 1017.5
20260501175307 65 0.0 0.0 0.00 0.00 0.00 50 1017.5
20260501174303 66 0.0 0.0 0.00 0.00 0.00 49 1017.3
20260501173311 67 0.0 0.0 0.00 0.00 0.00 47 1017.2
20260501171256 69 0.0 0.0 0.00 0.00 0.00 45 1017.3
20260501170306 70 0.0 0.0 0.00 0.00 0.00 45 1016.9
20260501165253 71 0.0 0.0 0.00 0.00 0.00 43 1017.0
20260501164251 73 0.0 0.0 0.00 0.00 0.00 41 1016.8
20260501163249 74 0.0 0.0 0.00 0.00 0.00 38 1016.7
20260501162248 75 0.0 0.0 0.00 0.00 0.00 36 1016.5
20260501161245 76 0.0 0.0 0.00 0.00 0.00 34 1016.6
20260501160304 77 0.0 0.0 0.00 0.00 0.00 33 1016.7
20260501155241 78 0.0 0.0 0.00 0.00 0.00 33 1016.8
20260501154319 78 0.0 0.0 0.00 0.00 0.00 33 1016.8
20260501153248 78 0.0 0.0 0.00 0.00 0.00 33 1016.8
20260501152235 78 0.0 0.0 0.00 0.00 0.00 33 1016.8
20260501151232 79 0.0 0.0 0.00 0.00 0.00 32 1017.0
20260501150321 79 0.0 0.0 0.00 0.00 0.00 32 1017.1